STARLINK-31340, 59170

Orbit data source: Space-Track

STARLINK-31340, 59170 is a payload satellite owned by SpaceX/Seattle (US) in LEO that was launched on Mon, 04 Mar 2024 UTC via an FALCON 9 launch vehicle from the Air Force Eastern Test Range (AFETR). Payload-class satellites include a variety of spacecraft equipped with specific instruments for various scientific and technological missions. These include communications satellites like Starlink; space stations such as the ISS; scientific satellites like the Hubble; Earth observation satellites from companies like Planet Labs, Umbra, and HawkEye 360; GPS; miniature CubeSats for education and research; and military/defense satellites.

Loading next visibility...
Identifier
59170, 2024-044U
Orbit
LEO
Country
Flag of USUS
Related business
Manufacturer
SpaceX/Seattle
Mission
Operational Commercial Communications
Bus & Motor
STARLINK V2M, Unknown motor
Mass
730 kg wet, ~700 kg dry
Launch date (UTC)
2024-03-04 (2 years ago)
Launch vehicle
FALCON 9
Launch site
Air Force Eastern Test Range (AFETR)
Object type
Payload
Rocket body
Debris
Shape & HBR
Box + 2 Pan, 17.7 m
Radar Cross Section
33.884 m², Large (>1 m²)

Expand to show TLE details & history
Last TLE update: 2 days ago

TLE from 2 days ago
0 STARLINK-31340
1 59170U 24044U   26171.08876765 -.00000200  00000-0  22638-5 0  9999
2 59170  43.0054 209.1821 0001957 286.5506  73.5131 15.27578648129686
Epoch: 2026-06-20T02:07Z
TLE epoch observation values (Epoch: 2026-06-20T02:07:49.524Z)
Latitude
-0.00002°
Longitude
-91.08267°
Altitude
482.448 km
Speed
7.626 km/s
True Right ascension
13h 56m 43s
True Declination
0° 00' 00"
Sunlit
Object was in full shadow at epoch
Visualization orbit readout
Latitude
Unknown
Longitude
Unknown
Altitude
Unknown
Speed
Unknown
Apparent Right ascension
Unknown
Apparent Declination
Unknown
Sunlit
N/A
Visualization observer readout
Local Sidereal Time
21:27:20
Azimuth
Unknown
Elevation
Unknown
Doppler factor
Unknown
Orbital elements
Apogee altitude
486.341 km
Perigee altitude
483.654 km
Semi-major axis
6,863.134 km
Eccentricity
0.0002
Inclination
43.0054°
RAAN
209.1821°
Arg. of periapsis
286.5506°
True anomaly
73.53461°
Mean anomaly
73.5131°
Eccentric anomaly
73.52385°
Mean motion
3.81733 °/min
Orbital period
94.31 mins
BSTAR
0.0000022638
Loading maneuver chart data...
Computing Atmospheric mass density...
Loading historical data...
Loading historical data...
Loading historical data...
Loading historical data...
Loading historical data...
Loading historical data...
Loading historical data...

Documentation

Showing up to 5 results
|